Location: Les Coudrans
(46.1056°N, 1.1158°W)
Time: 18:12:45
(UTC+00:00)

Cosmos 2322 Rocket - Pass Details

Date: 03 March 2021
Orbit: 832 x 852 km, 71.0° (Epoch: 14 April)

Event Time Altitude Azimuth Distance (km) Brightness Sun altitude
Rises 19:05:53 0° 211° (SSW) 3,363 5.7 -13.3°
Reaches altitude 10° 19:08:19 10° 213° (SSW) 2,434 5.0 -13.7°
Maximum altitude 19:13:54 72° 298° (WNW) 878 2.4 -14.7°
Drops below altitude 10° 19:19:31 10° 23° (NNE) 2,456 4.5 -15.6°
Sets 19:21:59 0° 26° (NNE) 3,396 5.2 -16.0°
